TimeEDT,TemperatureF,Dew PointF,Humidity,Sea Level PressureIn,VisibilityMPH,Wind Direction,Wind SpeedMPH,Gust SpeedMPH,PrecipitationIn,Events,Conditions,WindDirDegrees,DateUTC
12:51 AM,32.0,7.0,35,30.33,10.0,NNE,10.4,-,N/A,,Scattered Clouds,20,2013-03-18 04:51:00
1:51 AM,30.0,9.0,41,30.33,10.0,NNE,9.2,-,N/A,,Scattered Clouds,30,2013-03-18 05:51:00
2:51 AM,30.0,6.1,36,30.35,10.0,NNE,9.2,-,N/A,,Scattered Clouds,30,2013-03-18 06:51:00
3:51 AM,28.0,6.1,39,30.38,10.0,NNE,6.9,-,N/A,,Scattered Clouds,20,2013-03-18 07:51:00
4:51 AM,27.0,8.1,45,30.39,10.0,NNE,8.1,-,N/A,,Scattered Clouds,30,2013-03-18 08:51:00
5:51 AM,27.0,9.0,47,30.40,10.0,NNE,10.4,-,N/A,,Mostly Cloudy,20,2013-03-18 09:51:00
6:51 AM,27.0,10.0,49,30.41,10.0,NE,10.4,-,N/A,,Mostly Cloudy,40,2013-03-18 10:51:00
7:51 AM,28.9,12.0,49,30.42,10.0,ENE,12.7,-,N/A,,Mostly Cloudy,60,2013-03-18 11:51:00
8:51 AM,30.9,10.0,42,30.41,10.0,ENE,13.8,-,N/A,,Overcast,60,2013-03-18 12:51:00
9:51 AM,33.1,12.0,42,30.42,10.0,ENE,12.7,-,N/A,,Overcast,70,2013-03-18 13:51:00
10:51 AM,35.1,16.0,46,30.40,10.0,East,13.8,20.7,N/A,,Overcast,90,2013-03-18 14:51:00
11:51 AM,34.0,17.1,50,30.39,10.0,East,15.0,-,N/A,,Overcast,80,2013-03-18 15:51:00
12:51 PM,35.1,19.0,52,30.37,10.0,East,15.0,-,N/A,,Overcast,90,2013-03-18 16:51:00
1:51 PM,35.1,19.9,54,30.33,10.0,East,18.4,-,N/A,,Overcast,80,2013-03-18 17:51:00
2:51 PM,34.0,19.9,56,30.29,10.0,East,16.1,24.2,N/A,,Overcast,80,2013-03-18 18:51:00
3:51 PM,34.0,21.9,61,30.27,10.0,ENE,18.4,24.2,N/A,,Overcast,70,2013-03-18 19:51:00
4:51 PM,33.1,24.1,70,30.25,3.0,East,20.7,27.6,0.00,Snow,Light Snow,80,2013-03-18 20:51:00
5:17 PM,33.8,26.6,75,30.23,3.0,East,16.1,20.7,0.01,Snow,Light Snow,80,2013-03-18 21:17:00
5:51 PM,33.1,28.0,82,30.23,3.0,ENE,11.5,21.9,0.02,Rain-Snow,Light Snow,70,2013-03-18 21:51:00
6:06 PM,33.8,28.4,81,30.23,3.0,East,17.3,21.9,0.01,Rain,Light Ice Pellets,80,2013-03-18 22:06:00
6:48 PM,32.0,28.4,87,30.17,2.0,East,16.1,24.2,0.04,Snow,Light Snow,90,2013-03-18 22:48:00
6:51 PM,32.0,28.0,85,30.17,2.0,East,20.7,26.5,0.04,Snow,Light Snow,90,2013-03-18 22:51:00
7:08 PM,32.0,28.4,87,30.16,2.0,East,20.7,34.5,0.02,Snow,Light Snow,90,2013-03-18 23:08:00
7:46 PM,33.8,28.4,81,30.16,2.0,East,19.6,32.2,0.04,Snow,Light Snow,90,2013-03-18 23:46:00
7:51 PM,33.1,30.0,89,30.15,2.0,East,19.6,31.1,0.05,Snow,Light Snow,80,2013-03-18 23:51:00
8:09 PM,32.0,30.2,93,30.14,1.5,East,17.3,27.6,0.03,Snow,Light Snow,80,2013-03-19 00:09:00
8:48 PM,33.8,30.2,87,30.13,1.5,ENE,15.0,-,0.08,Snow,Light Snow,70,2013-03-19 00:48:00
8:51 PM,33.1,30.9,92,30.13,1.5,East,16.1,-,0.08,Snow,Light Snow,80,2013-03-19 00:51:00
9:26 PM,33.8,30.2,87,30.11,3.0,East,17.3,25.3,0.04,Snow,Light Ice Pellets,80,2013-03-19 01:26:00
9:44 PM,33.8,30.2,87,30.10,3.0,East,15.0,24.2,0.06,Rain,Rain,80,2013-03-19 01:44:00
9:51 PM,34.0,30.9,89,30.10,3.0,East,18.4,25.3,0.07,Rain,Light Rain,80,2013-03-19 01:51:00
10:51 PM,34.0,32.0,92,30.08,5.0,ENE,15.0,-,0.06,Rain,Rain,70,2013-03-19 02:51:00
11:51 PM,35.1,32.0,89,30.04,5.0,ENE,16.1,27.6,0.10,Rain,Light Rain,70,2013-03-19 03:51:00